Regional Weather Roundup
Issued by NWS

Home | Current Version | Previous Version | Text Only | Print | Product List | Glossary On
Versions: 1 2 3 4 5 6 7 8 9 10 11 12 13 14 15 16 17 18 19 20 21 22 23 24 25 26 27 28 29 30 31 32 33 34 35 36 37 38 39 40 41 42 43 44 45 46 47 48 49 50
000
ASUS43 KDMX 301603
RWRIA

WEATHER ROUNDUP FOR IOWA
NATIONAL WEATHER SERVICE DES MOINES IA
1100 AM CDT FRI SEP 30 2016

NOTE: "FAIR" INDICATES FEW OR NO CLOUDS BELOW 12,000 FEET WITH NO
SIGNIFICANT WEATHER AND/OR OBSTRUCTIONS TO VISIBILITY.

* - THESE STATIONS ARE NOT NWS STATIONS...THUS NOT UNDER NWS
QUALITY CONTROL.  THEY ALSO DO NOT REPORT WEATHER SUCH
AS PRECIPITATION OR FOG.

IAZ001>003-012>014-020>022-031>034-043>046-301700-
   NORTHWEST IOWA

CITY           SKY/WX    TMP DP  RH WIND       PRES   REMARKS
CARROLL *      SUNNY     64  54  68 NE8       30.30F
CHEROKEE *     SUNNY     62  56  80 CALM      30.32S
DENISON *      SUNNY     63  52  67 E10       30.29F
LE MARS *      SUNNY     64  54  68 CALM      30.33S
SHELDON *      SUNNY     64  52  63 VRB5      30.32S
SIOUX CITY     SUNNY     64  53  67 NE3       30.31F
SPENCER        SUNNY     65  52  62 NE6       30.33F
STORM LAKE *   SUNNY     64  52  63 NE6       30.33S
$$

IAZ055>058-069>071-079>083-090>094-301700-
   SOUTHWEST IOWA

CITY           SKY/WX    TMP DP  RH WIND       PRES   REMARKS
ATLANTIC *     SUNNY     64  54  68 NE9       30.29F
AUDUBON *      SUNNY     64  55  72 N6        30.31S
CLARINDA *       N/A     66  54  63 MISG      30.29F HAZE
COUNCIL BLFS * SUNNY     64  50  59 NE7       30.30S
CRESTON *      SUNNY     63  54  72 N13       30.28F
HARLAN  *      SUNNY     66  52  59 NE8       30.33F
LAMONI         PTSUNNY   62  56  80 N10       30.25F
RED OAK *      SUNNY     66  54  63 NE10G18   30.28F
SHENANDOAH *   SUNNY     66  52  59 NE7       30.28F
$$

IAZ047>049-059>061-072>074-084-301700-
   CENTRAL IOWA

CITY           SKY/WX    TMP DP  RH WIND       PRES   REMARKS
AMES           CLOUDY    61  55  81 NE12      30.28S
ANKENY *         N/A    N/A N/A N/A MISG        N/A
BOONE *        CLOUDY    61  54  77 NE12G20   30.28S
CHARITON *       N/A     63  54  72 N9        30.24S
DES MOINES     CLOUDY    63  54  72 NE8       30.27S
GRINNELL*      CLOUDY    61  53  74 N7        30.25F
KNOXVILLE *    CLOUDY    61  54  77 N8        30.23F
MARSHALLTOWN   CLOUDY    60  55  83 NE10      30.26F
NEWTON *       CLOUDY    61  54  77 NE9       30.25F
PELLA *        CLOUDY    63  54  71 NE6       30.26S
PERRY *          N/A     64  55  72 N9G17     30.29S HAZE
$$

IAZ004>006-015-016-023>025-035-036-301700-
   NORTH CENTRAL IOWA

CITY           SKY/WX    TMP DP  RH WIND       PRES   REMARKS
ALGONA *       MOSUNNY   63  55  77 E8        30.32F
CLARION *      CLOUDY    63  54  72 NE13      30.30F
ESTHERVILLE    SUNNY     63  53  70 NE8       30.33F
FORT DODGE *   CLOUDY    63  54  72 NE9       30.32S
MASON CITY     MOSUNNY   65  53  65 NE12      30.31F
FOREST CITY *    N/A     64  52  63 E7        30.31F
WEBSTER CITY * CLOUDY    63  54  72 NE10G17   30.28F
IOWA FALLS *   CLOUDY    60  54  81 N10       30.30S
$$

IAZ007>011-017>019-026>030-037>042-050>054-066-301700-
   NORTHEAST IOWA

CITY           SKY/WX    TMP DP  RH WIND       PRES   REMARKS
CEDAR RAPIDS   CLOUDY    61  57  87 N12       30.22F
CHARLES CITY * CLOUDY    61  55  82 NE10      30.29F
CLINTON *      CLOUDY    61  57  87 N14       30.20S
DECORAH *      CLOUDY    59  54  82 NE8G15    30.27F
DUBUQUE        CLOUDY    60  55  83 NE15G22   30.23S
MONTICELLO *   CLOUDY    61  55  82 NE8G16    30.23S
OELWEIN *      CLOUDY    59  55  88 NE10      30.26F
WATERLOO       CLOUDY    61  54  77 NE13      30.25F
$$

IAZ064-065-067-068-078-301700-
   EAST CENTRAL IOWA

CITY           SKY/WX    TMP DP  RH WIND       PRES   REMARKS
DAVENPORT      CLOUDY    61  56  83 NE13      30.20S
IOWA CITY      CLOUDY    63  55  75 N10       30.23F
MUSCATINE *    CLOUDY    63  55  77 N15       30.21R
QUAD CITIES    CLOUDY    62  56  80 N13       30.19R
$$

IAZ062-063-075>077-085>089-095>099-301700-
   SOUTHEAST IOWA

CITY           SKY/WX    TMP DP  RH WIND       PRES   REMARKS
BURLINGTON     CLOUDY    58  57  97 N13       30.18S
FAIRFIELD *    CLOUDY    63  54  72 N13       30.21S
FORT MADISON * CLOUDY    63  55  77 N7        30.19S
KEOKUK *       CLOUDY    64  55  72 N10       30.17F
OSKALOOSA *    CLOUDY    63  54  74 NE10      30.23F
OTTUMWA        PTSUNNY   64  53  67 NE13      30.22F
WASHINGTON *     N/A    N/A N/A N/A MISG        N/A
$$

ABBREVIATIONS USED IN REMARKS
   TC - TEMPERATURES IN CELSIUS
  WCI - WIND CHILL INDEX
   HX - HEAT INDEX
  VSB - VISIBILITY
$$




USA.gov is the U.S. government's official web portal to all federal, state and local government web resources and services.